Regional Weather Roundup
Issued by NWS

Home | Current Version | Previous Version | Graphics & Text | Print | Product List | Glossary On
Versions: 1 2 3 4 5 6 7 8 9 10 11 12 13 14 15 16 17 18 19 20 21 22 23 24 25 26 27 28 29 30 31 32 33 34 35 36 37 38 39 40 41 42 43 44 45 46 47 48 49 50
000
ASUS43 KDMX 030307
RWRIA

WEATHER ROUNDUP FOR IOWA
NATIONAL WEATHER SERVICE DES MOINES IA
1000 PM CDT THU JUL 02 2015

NOTE: "FAIR" INDICATES FEW OR NO CLOUDS BELOW 12,000 FEET WITH NO
SIGNIFICANT WEATHER AND/OR OBSTRUCTIONS TO VISIBILITY.

* - THESE STATIONS ARE NOT NWS STATIONS...THUS NOT UNDER NWS
QUALITY CONTROL.  THEY ALSO DO NOT REPORT WEATHER SUCH
AS PRECIPITATION OR FOG.

IAZ001>003-012>014-020>022-031>034-043>046-030400-
   NORTHWEST IOWA

CITY           SKY/WX    TMP DP  RH WIND       PRES   REMARKS
CARROLL *      CLOUDY    63  59  88 NE5       29.98S
CHEROKEE *     CLOUDY    63  59  88 E3        29.99S
DENISON *      CLOUDY    61  57  88 CALM      29.96S
LE MARS *      PTCLDY    66  61  82 SE3       30.00S
ORANGE CITY *  CLEAR     63  57  82 CALM      30.00R
SHELDON *      CLOUDY    59  59 100 CALM      29.99S
SIOUX CITY     CLOUDY    65  56  72 NE6       29.99R
SPENCER        PTCLDY    61  54  77 E3        30.01R
STORM LAKE *   CLEAR     61  57  88 CALM      30.01S
$$

IAZ055>058-069>071-079>083-090>094-030400-
   SOUTHWEST IOWA

CITY           SKY/WX    TMP DP  RH WIND       PRES   REMARKS
ATLANTIC *     CLOUDY    61  57  88 NE7       29.97R
AUDUBON *      CLEAR     61  55  82 CALM      29.99R
CLARINDA *     PTCLDY    66  61  82 E5        29.96S
COUNCIL BLFS * MOCLDY    64  61  88 NE8       29.97R
CRESTON *      CLOUDY    63  55  77 E5        29.97R
HARLAN  *      PTCLDY    61  59  94 CALM      30.01R
LAMONI         PTCLDY    62  56  80 E3        29.95S
RED OAK *      CLEAR     64  59  82 E8        29.96R
SHENANDOAH *     N/A     68  63  83 E7        29.95R
$$

IAZ047>049-059>061-072>074-084-030400-
   CENTRAL IOWA

CITY           SKY/WX    TMP DP  RH WIND       PRES   REMARKS
AMES           MOCLDY    60  56  86 CALM      29.97F
ANKENY *       PTCLDY    63  59  88 NE5       29.97R
CHARITON *     CLOUDY    63  59  88 N6        29.96S
DES MOINES     CLOUDY    67  54  63 E6        29.96F
GRINNELL*      CLOUDY    61  55  82 CALM      29.98S
KNOXVILLE *    CLOUDY    66  55  68 CALM      29.96R
MARSHALLTOWN   CLOUDY    63  57  81 NE3       29.97S
PELLA *        CLOUDY    63  59  88 CALM      29.98R
PERRY *        CLOUDY    63  59  88 NE3       29.97F
$$

IAZ004>006-015-016-023>025-035-036-030400-
   NORTH CENTRAL IOWA

CITY           SKY/WX    TMP DP  RH WIND       PRES   REMARKS
ALGONA *       CLEAR     61  55  82 SW3       30.00S
CLARION *      CLEAR     61  57  88 CALM      30.00R
ESTHERVILLE    MOCLDY    58  53  84 CALM      30.00S
FORT DODGE *   CLOUDY    61  54  77 CALM      30.00S
MASON CITY     PTCLDY    61  57  87 CALM      30.01S
FOREST CITY *  CLEAR     57  55  94 CALM      30.00S
IOWA FALLS *     N/A     59  57  94 CALM      30.00S
$$

IAZ007>011-017>019-026>030-037>042-050>054-066-030400-
   NORTHEAST IOWA

CITY           SKY/WX    TMP DP  RH WIND       PRES   REMARKS
CEDAR RAPIDS   CLOUDY    63  54  72 E6        29.97S
CHARLES CITY * CLEAR     63  59  88 E3        30.00S
CLINTON *      MOCLDY    61  54  77 N6        30.00S
DECORAH *        N/A    N/A N/A N/A MISG        N/A
DUBUQUE        CLOUDY    60  50  69 NE5       30.00R
MONTICELLO *   CLEAR     61 N/A N/A NE3       29.99R
OELWEIN *        N/A    N/A N/A N/A MISG        N/A
WATERLOO       MOCLDY    62  59  90 NE3       29.98R
$$

IAZ064-065-067-068-078-030400-
   EAST CENTRAL IOWA

CITY           SKY/WX    TMP DP  RH WIND       PRES   REMARKS
DAVENPORT      MOCLDY    61  57  87 N6        29.98R
IOWA CITY      CLOUDY    65  55  70 NE6       29.97F
MT. PLEASANT * CLOUDY    66  57  72 NE3       29.96R
MUSCATINE *    CLOUDY    64  57  77 N5        29.97R
QUAD CITIES    MOCLDY    63  58  83 CALM      29.96S
$$

IAZ062-063-075>077-085>089-095>099-030400-
   SOUTHEAST IOWA

CITY           SKY/WX    TMP DP  RH WIND       PRES   REMARKS
BURLINGTON     MOCLDY    66  59  78 NE7       29.95R
FAIRFIELD *    CLOUDY    64  55  72 NE5       29.96R
FORT MADISON * CLEAR     64  61  88 CALM      29.97R
KEOKUK *       CLEAR     66  61  82 NE5       29.94F
OSKALOOSA *      N/A     63  57  82 NE3       29.96S
CENTERVILLE *  PTCLDY    63  59  88 N3        29.97S
OTTUMWA        CLOUDY    64  57  78 NE6       29.94S
WASHINGTON *   CLEAR     63  59  88 NE7       29.97S
$$

ABBREVIATIONS USED IN REMARKS
   TC - TEMPERATURES IN CELSIUS
  WCI - WIND CHILL INDEX
   HX - HEAT INDEX
  VSB - VISIBILITY
$$




USA.gov is the U.S. government's official web portal to all federal, state and local government web resources and services.